This demonstration page uses our WeatherBlox Daily Observations layout. Learn more.

Left ArrowRight Arrow

34.74481, -87.66753

Hourly Observations for July 27, 2022

Temp ( °F °C ) Dew Point ( °F °C ) Humidity (%) Winds ( mph kmh ) Pressure ( in mb ) Visibility ( mi km ) Precip ( " mm )
12:53 am 00:53 Clear 81 27.2 73 22.8 77 77 S 6 9 30.02 1017 10 16 0.00 0.00
1:53 am 01:53 Clear 81 27.2 73 22.8 77 77 S 6 9 30.02 1017 10 16 0.00 0.00
2:53 am 02:53 Clear 81 27.2 72 22.2 74 74 SW 10 17 30.01 1016 10 16 0.00 0.00
3:53 am 03:53 Clear 80 26.7 73 22.8 79 79 SSW 6 9 30.00 1016 10 16 0.00 0.00
4:53 am 04:53 Clear 80 26.7 72 22.2 76 76 SW 6 9 30.01 1016 10 16 0.00 0.00
5:53 am 05:53 Clear 78 25.6 72 22.2 82 82 S 6 9 30.03 1017 10 16 0.00 0.00
6:53 am 06:53 Sunny 79 26.1 73 22.8 82 82 WSW 3 6 30.04 1017 10 16 0.00 0.00
7:53 am 07:53 Sunny 82 27.8 73 22.8 74 74 SW 8 13 30.06 1018 10 16 0.00 0.00
8:53 am 08:53 Sunny 85 29.4 73 22.8 68 68 SW 9 15 30.07 1018 10 16 0.00 0.00
9:53 am 09:53 Sunny 89 31.7 72 22.2 57 57 W 12 19 30.07 1018 10 16 0.00 0.00
10:53 am 10:53 Partly Cloudy 90 32.2 72 22.2 56 56 WSW 13 20 30.07 1018 10 16 0.00 0.00
11:53 am 11:53 Mostly Sunny 92 33.3 71 21.7 51 51 SW 14 22 30.05 1018 10 16 0.00 0.00
12:53 pm 12:53 Partly Cloudy 92 33.3 71 21.7 51 51 VRB 6 9 30.04 1017 10 16 0.00 0.00
1:53 pm 13:53 Sunny 96 35.6 71 21.7 44 44 SW 15 24 30.01 1016 10 16 0.00 0.00
2:53 pm 14:53 Partly Cloudy 94 34.4 71 21.7 48 48 WSW 7 11 29.98 1015 10 16 0.00 0.00
3:53 pm 15:53 Mostly Sunny 96 35.6 71 21.7 44 44 SSW 9 15 29.96 1014 10 16 0.00 0.00
4:53 pm 16:53 Sunny 95 35 71 21.7 46 46 SSW 9 15 29.96 1015 10 16 0.00 0.00
5:53 pm 17:53 Sunny 95 35 71 21.7 46 46 SW 9 15 29.95 1014 10 16 0.00 0.00
6:53 pm 18:53 Sunny 92 33.3 71 21.7 51 51 SSW 13 20 29.95 1014 10 16 0.00 0.00
7:53 pm 19:53 Sunny 89 31.7 71 21.7 55 55 SSW 8 13 29.95 1014 10 16 0.00 0.00
8:53 pm 20:53 Clear 86 30 71 21.7 61 61 SW 3 6 29.96 1015 10 16 0.00 0.00
9:53 pm 21:53 Clear 84 28.9 72 22.2 67 67 SW 3 6 29.99 1016 10 16 0.00 0.00
10:53 pm 22:53 Clear 82 27.8 72 22.2 72 72 S 6 9 30.00 1016 10 16 0.00 0.00
11:53 pm 23:53 Clear 83 28.3 72 22.2 70 70 SSW 7 11 30.01 1016 10 16 0.00 0.00

Powered by AerisWeather